Temperature
19 19 19 19 19 19 19 19 19 19 19 19 19 19 19 19 19 19 19 19 19 19 18 18 18 18 18 18 18 18 18 18 18 18 18 18 18 18 18 18 18 18 18
19 19 19 19 19 19 19 19 19 19 19 19 19 19 19 19 19 19 19 19 19 18 18 18 18 18 18 18 18 18 18 18 18 18 18 18 18 18 18 18 18 18 18
19 19 19 19 19 19 19 19 19 19 19 19 19 19 19 19 19 19 19 19 18 18 18 18 18 18 18 18 18 18 18 18 18 18 18 18 18 18 18 18 18 18 18
19 19 19 19 19 19 19 19 19 19 19 19 19 19 19 19 19 19 18 18 18 18 18 18 18 18 18 18 18 18 18 18 18 18 18 18 18 18 18 18 18 18 18
19 19 19 19 19 19 19 19 19 19 18 19 19 19 19 19 18 18 18 18 18 18 18 18 18 18 18 18 18 18 18 18 18 18 17 17 17 17 17 17 18 18 18
19 19 19 19 19 19 19 19 19 18 18 18 19 19 19 18 18 18 18 18 18 18 18 18 18 18 18 18 18 18 18 17 17 17 17 17 17 17 17 17 17 18 18
19 19 19 19 19 19 19 19 19 18 18 18 18 18 18 18 18 18 18 18 18 18 18 18 18 18 18 18 18 18 17 17 17 17 17 17 17 17 17 17 17 17 17
19 19 19 19 19 19 19 19 18 18 18 18 18 18 19 19 18 18 18 18 18 18 18 18 18 18 18 18 18 18 18 18 18 18 17 17 17 17 17 17 17 17 17
19 19 19 19 19 18 18 18 18 18 18 18 18 18 18 18 18 18 18 18 18 18 18 18 18 18 18 18 18 18 18 18 18 18 18 18 18 17 17 17 17 17 17
19 19 19 18 18 18 18 18 18 18 18 18 18 18 18 18 18 18 18 18 18 18 18 18 18 18 18 18 17 17 17 17 18 17 18 18 18 17 17 17 17 17 17
19 19 18 18 18 18 18 18 18 18 18 18 18 18 18 18 18 18 18 18 18 18 18 18 18 18 18 18 17 17 17 17 18 18 18 18 17 17 17 17 17 17 17
19 19 19 19 18 18 18 18 18 18 18 18 18 18 18 18 18 18 18 18 18 18 18 18 18 18 18 18 17 17 17 18 18 18 18 17 17 17 17 17 17 17 17
19 19 19 19 19 18 18 18 18 18 18 18 18 18 18 18 18 18 18 18 18 18 18 18 18 18 18 18 18 17 17 18 18 18 17 17 17 17 17 17 17 17 17
19 19 19 19 19 19 18 18 18 18 18 18 18 18 18 18 18 18 18 18 18 18 18 17 17 17 17 17 17 17 17 17 17 17 17 17 17 17 17 17 17 17 17
19 19 19 19 19 18 18 18 18 18 18 18 18 18 18 18 18 18 18 18 17 17 17 17 17 17 17 17 17 17 17 17 17 17 17 17 17 17 17 17 17 17 17
19 19 19 19 19 19 18 18 18 18 18 18 18 18 18 18 18 18 18 18 17 17 17 17 17 17 17 17 17 17 17 18 17 17 17 17 17 17 17 17 17 17 17
19 19 19 19 19 19 18 18 18 18 18 18 18 18 18 18 18 17 18 17 17 17 17 17 17 17 17 17 17 17 17 17 17 17 17 17 17 17 17 17 17 17 17
20 19 19 19 19 19 18 18 18 18 18 18 18 18 18 18 18 17 17 17 17 17 17 17 17 17 17 17 17 17 17 17 17 17 17 17 17 17 17 17 17 17 17
20 20 19 19 19 19 18 18 18 18 18 18 18 18 18 18 18 18 18 17 17 17 17 17 17 17 17 17 17 18 18 18 18 17 17 17 17 17 17 17 17 17 17
20 20 19 19 19 19 19 18 18 18 18 18 18 18 18 18 18 18 18 17 17 17 17 17 17 17 17 18 18 17 17 17 17 17 17 17 17 17 17 17 17 17 17
20 20 20 19 19 19 19 19 18 18 18 18 18 18 18 18 18 18 18 18 17 17 17 17 17 17 17 17 17 17 17 17 17 17 17 17 17 17 17 17 17 17 17
20 20 20 20 19 19 19 19 19 18 18 18 18 18 18 18 18 18 18 18 17 17 17 17 17 17 17 17 17 17 17 17 17 17 17 17 17 17 17 17 17 17 17
20 20 20 20 19 19 19 19 19 19 18 18 18 18 18 18 18 18 18 18 17 17 17 17 17 17 17 17 17 17 17 17 17 17 17 17 17 17 17 17 17 17 17
21 21 20 20 20 20 19 19 19 19 19 19 18 18 18 18 18 18 18 18 18 18 17 17 17 17 17 17 17 17 17 17 17 16 17 17 17 17 17 17 17 17 17
21 21 21 20 20 20 19 19 19 19 19 19 19 18 18 18 18 18 18 18 18 18 17 17 17 17 17 17 17 17 17 17 17 16 16 17 17 17 16 16 16 17 17
21 21 21 20 20 20 20 19 19 19 19 19 19 19 18 18 18 18 18 18 18 18 17 17 17 17 17 17 17 17 17 17 16 16 16 16 16 16 16 16 16 16 16
Wind_Speed
2 2 1 1 3 3 3 4 5 6 6 7 7 8 8 9 10 11 12 12 12 12 11 12 11 11 11 11 11 11 11 11 12 11 11 10 11 10 11 12 12 10 12
1 0 1 3 3 3 4 5 6 7 7 7 7 7 7 8 9 10 11 12 12 12 12 11 11 11 11 10 9 10 10 11 11 11 10 10 10 10 10 11 11 10 12
1 0 2 3 4 4 4 5 5 6 7 7 6 6 7 8 8 10 11 11 11 11 11 11 11 11 10 9 9 9 10 10 10 10 9 7 8 9 10 11 11 11 11
1 1 2 3 4 4 4 5 5 5 6 6 6 7 8 8 9 10 11 11 10 10 10 10 10 10 10 9 8 9 10 10 9 9 7 6 6 9 10 11 11 11 11
2 2 2 4 4 4 4 4 5 5 6 6 7 7 8 9 10 11 11 10 10 10 10 10 10 10 9 8 8 8 9 9 8 7 5 6 5 8 9 10 10 10 10
2 2 2 4 5 5 4 4 5 5 6 6 6 8 8 9 10 10 10 10 9 10 9 9 9 9 8 7 7 7 7 7 6 5 5 5 5 7 8 9 10 10 10
2 2 3 4 4 5 5 5 5 5 5 6 6 7 8 8 8 9 8 8 8 8 8 8 8 8 7 7 6 6 6 6 5 5 4 5 5 7 8 8 9 10 10
2 2 3 4 4 5 5 5 6 5 5 6 6 6 6 7 7 7 7 7 7 7 6 6 7 7 7 6 6 5 5 5 5 4 4 5 6 8 9 9 9 9 10
3 3 4 3 3 4 5 5 6 6 5 5 5 5 5 5 5 5 6 6 6 5 5 5 5 6 6 6 6 5 4 4 3 3 3 4 6 8 9 9 9 9 9
4 4 3 4 4 4 4 5 6 6 5 5 5 5 4 4 4 4 4 4 4 4 3 3 4 4 5 6 5 4 4 2 2 1 2 4 7 8 8 8 8 9 9
3 3 3 3 4 4 4 5 5 5 6 5 4 4 4 3 2 2 2 3 2 2 2 2 2 3 4 5 4 3 3 2 2 1 2 4 6 7 7 7 7 8 8
1 2 2 2 3 3 3 4 3 4 4 4 4 5 4 4 3 3 2 2 2 2 3 3 5 6 5 5 4 3 2 2 1 0 2 3 4 5 6 6 7 8 8
1 1 2 2 3 3 3 3 3 3 3 4 5 5 4 4 4 4 3 3 3 4 4 5 6 5 5 4 2 2 2 2 1 0 1 2 3 4 4 6 7 8 9
2 1 1 2 2 2 2 2 2 2 2 2 3 3 3 3 3 3 3 3 3 3 4 4 4 5 5 4 3 2 2 1 1 0 1 1 2 2 3 4 7 7 8
2 1 1 2 2 2 2 2 2 2 2 1 1 2 2 2 3 3 3 3 3 3 3 3 3 4 4 3 2 2 1 1 1 0 0 0 1 2 2 2 4 6 7
3 2 1 2 1 2 2 1 1 1 1 1 1 1 2 2 2 3 3 3 3 2 3 3 3 3 3 3 3 2 1 1 0 1 1 1 1 2 3 2 3 5 6
3 2 2 2 1 2 1 1 1 1 1 1 1 1 2 2 2 2 3 2 2 3 3 3 3 3 3 3 2 2 2 1 1 1 1 1 1 2 2 3 3 4 4
3 2 2 2 2 2 1 1 1 1 1 1 1 2 2 2 3 2 2 2 2 3 3 2 3 3 3 2 2 2 1 1 1 1 1 2 1 2 2 3 3 3 4
4 4 2 2 2 2 1 1 1 2 1 1 1 1 1 2 3 3 2 1 2 2 2 2 2 2 2 2 2 2 2 1 1 1 1 2 2 2 2 3 3 3 4
4 3 3 2 2 2 2 2 2 2 2 2 2 1 1 2 3 3 2 2 2 2 2 2 2 2 1 1 2 3 2 2 1 1 1 1 2 2 2 2 2 3 3
4 3 3 3 2 2 2 1 1 1 1 1 1 2 2 2 2 2 2 2 2 2 1 2 2 2 1 1 2 3 3 2 2 2 1 1 2 2 2 2 2 2 2
5 5 4 4 3 3 2 1 1 1 0 0 1 3 3 2 2 2 1 1 1 1 2 2 2 1 0 1 1 1 3 3 3 2 2 1 2 2 2 2 2 2 3
6 7 6 5 4 3 3 2 2 2 2 2 2 2 2 2 1 1 1 1 1 1 1 2 2 2 1 0 1 2 1 1 2 2 2 2 2 2 2 2 2 2 3
7 6 6 5 4 3 3 3 3 2 1 1 1 1 2 2 1 0 1 1 1 1 2 2 2 2 2 1 0 1 1 2 1 2 2 2 3 2 2 2 2 3 3
7 6 5 5 4 3 3 4 3 2 2 1 0 1 2 2 2 1 0 1 1 1 2 1 1 2 2 2 1 1 1 1 1 1 2 3 3 2 2 2 2 2 3
5 5 5 5 4 4 4 4 4 4 3 1 1 1 1 1 2 2 0 1 1 1 1 1 1 2 2 2 2 2 2 2 2 2 2 2 2 3 3 2 2 2 2
Wind_Direction
299 290 306 103 105 90 96 101 106 110 111 112 114 116 124 131 136 139 141 142 143 144 142 141 138 137 135 138 140 139 138 136 136 139 141 142 141 139 139 142 142 142 144
258 285 149 109 116 106 96 102 105 105 108 110 114 117 124 131 137 143 145 145 146 148 148 147 142 138 135 136 137 139 139 139 142 145 146 146 146 144 141 141 143 144 145
60 189 150 104 103 105 103 110 112 111 111 112 114 119 125 129 138 143 145 145 146 149 149 146 141 140 141 143 141 140 141 142 146 148 148 146 149 151 151 147 147 147 148
80 96 132 112 100 97 98 106 116 115 116 118 114 112 123 130 136 139 140 140 146 149 148 146 144 145 145 143 141 144 144 147 152 151 146 144 149 156 157 153 152 152 153
69 66 101 100 97 94 92 103 115 120 123 121 114 109 119 126 132 136 137 140 145 147 147 147 146 148 147 146 145 149 151 151 152 147 141 144 148 162 164 161 158 158 158
59 45 71 79 79 81 88 94 102 112 122 124 119 113 115 124 129 130 132 136 142 145 148 149 150 151 150 148 148 152 155 150 146 142 148 154 156 166 170 169 166 166 165
67 43 79 78 75 77 82 84 91 102 114 119 114 112 113 116 121 124 127 131 136 144 148 150 152 153 152 150 146 147 149 143 134 136 147 162 171 174 177 174 171 171 171
83 47 61 74 74 72 72 79 83 90 106 113 117 114 115 118 119 123 129 135 139 143 151 157 159 157 154 151 146 143 142 141 134 140 162 181 189 186 184 184 181 178 175
61 47 31 38 54 66 65 70 75 75 95 109 115 120 118 118 121 126 134 138 139 145 150 159 168 164 161 153 147 146 143 140 132 151 180 192 196 193 190 189 190 188 186
49 34 29 32 39 49 55 61 68 66 78 94 102 110 115 122 127 132 136 139 142 147 153 169 179 174 168 156 150 145 131 122 115 165 197 196 198 194 194 194 195 194 193
45 23 26 30 37 43 47 57 54 56 62 71 82 90 88 81 96 123 141 128 129 137 137 124 125 129 126 126 132 125 105 105 119 151 188 192 194 195 195 196 196 197 196
64 14 28 41 47 44 54 51 33 41 51 56 57 57 51 47 60 70 85 93 95 86 88 81 81 90 95 96 95 89 81 109 107 172 198 196 194 195 197 200 204 204 202
155 41 28 53 52 55 50 52 40 38 44 50 48 45 46 44 43 44 39 42 47 58 63 66 63 75 87 95 97 88 85 98 122 226 216 177 182 187 195 201 204 208 206
126 111 45 67 66 63 59 50 50 48 50 51 45 43 52 51 42 38 40 46 48 50 57 60 68 72 77 82 86 86 79 94 116 163 199 128 178 188 192 203 206 206 202
147 146 83 80 81 73 61 46 63 57 50 40 46 56 72 71 59 52 45 48 51 57 61 63 72 74 73 63 63 81 86 79 49 1 296 302 227 221 219 210 209 210 203
176 168 131 95 93 92 77 61 53 62 42 46 30 43 84 99 86 74 57 46 43 62 74 78 77 75 69 60 42 40 61 67 36 13 334 310 271 246 242 235 220 215 212
176 166 157 148 118 109 93 63 68 66 71 60 19 49 80 105 106 93 79 62 44 67 72 77 67 65 64 59 45 34 44 38 25 11 352 343 319 283 258 242 228 222 217
165 161 177 159 127 116 97 69 49 51 59 26 28 48 75 116 125 118 99 80 68 73 71 79 73 63 54 49 37 27 44 45 7 7 0 345 333 319 299 269 243 234 236
176 169 165 154 138 131 105 75 50 43 42 23 34 39 64 104 125 127 116 106 100 81 70 89 78 79 63 39 32 32 26 20 3 17 15 341 323 309 303 300 280 261 258
172 167 165 160 146 118 91 65 44 37 27 27 26 19 52 84 105 119 120 106 108 95 80 81 86 70 81 55 41 30 15 4 8 13 355 355 340 333 337 316 309 291 280
169 170 177 171 167 128 105 104 78 18 357 11 4 7 25 58 83 109 112 96 100 107 113 112 111 88 56 50 49 15 8 15 19 12 14 15 3 0 360 336 318 297 294
186 189 188 187 180 172 164 151 146 137 76 20 2 12 15 39 63 101 120 128 129 128 118 126 132 116 63 59 89 51 358 356 6 11 17 15 353 357 347 333 319 278 277
197 198 196 194 189 185 166 119 90 66 41 33 18 355 347 8 32 88 147 158 165 160 163 172 164 153 174 19 115 131 129 277 320 340 353 360 349 344 327 325 316 295 278
206 196 191 189 186 184 159 149 153 156 171 223 233 307 338 4 4 19 138 158 183 182 186 204 174 166 161 187 183 156 175 175 186 315 328 337 336 328 322 321 318 306 289
198 190 187 183 182 178 167 167 164 174 190 208 66 357 345 351 354 345 112 135 174 185 195 194 165 165 174 180 181 169 146 138 175 196 289 322 333 316 305 297 307 310 301
189 185 178 178 186 179 175 174 174 181 182 186 242 273 313 323 326 324 332 161 186 193 199 199 188 184 192 188 184 173 170 176 192 189 232 274 298 302 301 290 293 302 308
Height
1499 1497 1496 1495 1495 1496 1496 1495 1496 1496 1496 1496 1496 1497 1497 1498 1499 1501 1503 1504 1506 1508 1510 1511 1513 1515 1517 1519 1520 1521 1522 1523 1525 1526 1528 1529 1531 1532 1533 1535 1536 1538 1540
1500 1498 1498 1497 1497 1496 1497 1497 1497 1497 1497 1497 1497 1497 1498 1498 1500 1502 1504 1505 1507 1509 1511 1512 1514 1516 1517 1519 1521 1522 1523 1524 1526 1527 1529 1530 1532 1533 1534 1535 1537 1538 1540
1501 1500 1499 1498 1498 1498 1498 1498 1498 1498 1498 1498 1498 1497 1497 1498 1500 1502 1504 1506 1508 1510 1511 1513 1515 1517 1518 1520 1521 1522 1523 1525 1527 1528 1529 1531 1533 1534 1535 1536 1538 1539 1540
1502 1501 1500 1500 1499 1499 1499 1498 1499 1499 1499 1499 1498 1497 1497 1498 1500 1502 1505 1507 1508 1510 1512 1514 1516 1517 1519 1520 1521 1522 1524 1526 1527 1528 1530 1531 1533 1534 1535 1536 1538 1539 1540
1503 1503 1502 1501 1501 1500 1500 1499 1499 1500 1500 1500 1499 1499 1499 1499 1501 1503 1506 1508 1510 1511 1513 1515 1517 1518 1520 1521 1522 1523 1525 1526 1528 1529 1530 1531 1532 1533 1535 1536 1537 1539 1540
1505 1504 1503 1503 1502 1501 1501 1501 1500 1501 1501 1501 1501 1501 1500 1501 1503 1505 1507 1509 1511 1513 1514 1516 1517 1519 1520 1522 1523 1524 1526 1526 1527 1529 1530 1531 1532 1533 1534 1535 1536 1538 1539
1506 1506 1505 1504 1504 1503 1502 1502 1502 1502 1502 1503 1503 1504 1504 1504 1505 1507 1509 1511 1512 1514 1515 1517 1518 1519 1521 1522 1523 1525 1526 1527 1527 1528 1529 1530 1531 1532 1533 1534 1536 1537 1539
1508 1508 1507 1506 1506 1505 1504 1504 1503 1503 1504 1504 1504 1505 1506 1507 1508 1509 1511 1512 1513 1514 1516 1517 1518 1519 1521 1522 1523 1525 1526 1526 1527 1528 1528 1529 1530 1531 1532 1533 1536 1537 1539
1510 1510 1509 1508 1508 1507 1506 1506 1506 1505 1506 1506 1506 1507 1507 1508 1509 1510 1512 1513 1514 1515 1516 1517 1518 1519 1520 1522 1523 1524 1526 1526 1527 1527 1527 1528 1529 1530 1532 1533 1535 1537 1538
1512 1512 1511 1511 1510 1509 1508 1508 1508 1507 1508 1508 1508 1508 1509 1509 1510 1511 1513 1514 1515 1516 1516 1517 1517 1518 1519 1521 1523 1524 1525 1526 1527 1527 1527 1528 1528 1529 1531 1533 1534 1536 1537
1514 1514 1513 1513 1512 1512 1511 1510 1510 1510 1510 1510 1510 1510 1510 1510 1511 1512 1513 1515 1516 1516 1517 1516 1516 1516 1518 1520 1522 1524 1526 1527 1527 1527 1527 1528 1528 1529 1531 1532 1533 1534 1536
1515 1515 1515 1515 1514 1514 1513 1513 1513 1513 1513 1512 1512 1512 1511 1511 1511 1513 1514 1516 1516 1517 1517 1516 1515 1515 1517 1520 1523 1525 1526 1527 1528 1528 1528 1529 1529 1530 1530 1531 1532 1533 1534
1518 1517 1517 1517 1516 1516 1516 1516 1516 1515 1515 1515 1514 1513 1513 1512 1512 1514 1515 1517 1518 1518 1517 1517 1517 1517 1520 1522 1524 1526 1527 1528 1528 1529 1529 1529 1530 1530 1530 1530 1531 1532 1533
1519 1519 1519 1518 1518 1518 1518 1518 1518 1518 1518 1517 1517 1516 1515 1514 1515 1516 1517 1518 1519 1519 1519 1520 1520 1521 1523 1525 1526 1527 1528 1529 1529 1530 1530 1530 1530 1530 1530 1530 1530 1531 1532
1520 1520 1520 1520 1520 1520 1520 1520 1520 1520 1520 1520 1520 1519 1518 1518 1518 1519 1519 1520 1521 1521 1521 1522 1523 1524 1525 1526 1527 1528 1529 1530 1530 1530 1530 1530 1530 1530 1529 1530 1529 1530 1531
1522 1522 1522 1522 1522 1522 1522 1522 1522 1523 1523 1522 1522 1522 1522 1521 1521 1521 1522 1522 1523 1523 1524 1524 1525 1526 1527 1528 1529 1529 1530 1530 1530 1531 1531 1531 1531 1530 1530 1530 1529 1529 1530
1523 1524 1524 1524 1524 1524 1524 1524 1524 1525 1525 1525 1524 1524 1524 1524 1524 1524 1524 1525 1525 1525 1526 1526 1527 1527 1528 1529 1529 1530 1530 1530 1531 1531 1531 1531 1530 1530 1530 1530 1529 1529 1530
1524 1525 1525 1525 1525 1525 1526 1526 1526 1526 1526 1526 1526 1526 1526 1526 1526 1526 1526 1527 1527 1527 1528 1528 1528 1528 1529 1529 1530 1530 1530 1531 1531 1531 1531 1531 1530 1530 1530 1530 1530 1529 1530
1525 1526 1526 1526 1526 1527 1527 1527 1527 1527 1528 1528 1528 1528 1528 1528 1528 1528 1528 1529 1529 1529 1529 1529 1529 1529 1529 1530 1530 1530 1530 1530 1531 1531 1531 1530 1530 1530 1529 1529 1529 1529 1529
1526 1526 1527 1527 1527 1528 1528 1528 1528 1529 1529 1529 1530 1530 1530 1530 1530 1530 1530 1530 1530 1530 1530 1530 1530 1530 1530 1530 1530 1530 1530 1530 1530 1530 1530 1530 1530 1529 1529 1528 1528 1528 1528
1525 1526 1526 1527 1528 1528 1528 1529 1529 1529 1530 1530 1531 1531 1531 1531 1531 1531 1530 1531 1531 1531 1530 1531 1531 1530 1530 1531 1530 1530 1530 1530 1530 1530 1530 1529 1529 1528 1528 1528 1527 1527 1527
1525 1525 1526 1527 1528 1528 1529 1530 1530 1530 1531 1531 1532 1532 1532 1531 1531 1531 1531 1531 1531 1531 1531 1531 1531 1531 1531 1531 1531 1530 1530 1531 1530 1529 1529 1529 1528 1528 1527 1526 1526 1526 1526
1524 1525 1526 1526 1527 1528 1529 1530 1530 1531 1531 1532 1532 1532 1532 1532 1532 1532 1532 1532 1531 1531 1531 1531 1531 1531 1531 1531 1531 1531 1531 1530 1529 1529 1528 1528 1527 1527 1526 1526 1525 1525 1524
1522 1524 1525 1526 1527 1528 1529 1530 1530 1531 1531 1532 1532 1532 1532 1532 1532 1532 1531 1531 1531 1531 1531 1530 1530 1530 1530 1530 1530 1530 1531 1530 1530 1528 1528 1527 1527 1526 1525 1524 1524 1523 1523
1521 1523 1524 1526 1527 1528 1529 1529 1530 1530 1531 1531 1531 1531 1532 1531 1531 1531 1531 1531 1530 1530 1530 1530 1530 1530 1530 1530 1529 1529 1529 1529 1528 1528 1527 1527 1526 1525 1524 1523 1522 1522 1521
1520 1522 1523 1525 1526 1527 1528 1529 1529 1530 1530 1531 1530 1530 1530 1531 1531 1531 1530 1530 1530 1529 1529 1529 1529 1529 1529 1528 1528 1528 1528 1527 1527 1526 1525 1525 1524 1524 1523 1522 1521 1520 1520